Flag for Germany Weather past 2 weeks in Heilbronn, Baden-Württemberg, Germany

Now
52 °F

Overcast.


Feels Like: 52 °F
Forecast: 39 / 44 °F
Wind: 2 mph from West

Location: Oehringen

Current Time: Oct 21, 2014 at 8:15:02 AM

Latest Report: Oct 21, 2014 at 7:00 AM


Visibility: 5 mi

Pressure: 29.96 "Hg

Humidity: 96%

Dew point: 51 °F

Location of HeilbronnLocation

Historic Weather in Heilbronn — Graph

°F

Heilbronn temperature yesterday

Maximum temperature yesterday: 64 °F (at 2:00 AM)
Minimum temperature yesterday: 57 °F (at 11:00 PM)
Average temperature yesterday: 61 °F

Past Weeks' High & Low Weather Summary

 TemperatureHumidityPressure
High79 °F (Oct 9, 3:00 PM)99% (Oct 11, 8:00 AM)30.21 "Hg (Oct 11, 8:00 AM)
Low48 °F (Oct 18, 6:00 AM)38% (Oct 9, 3:00 PM)29.74 "Hg (Oct 7, 10:00 AM)
Average59 °F85%29.92 "Hg
* Reported Oct 6 7:00 AM — Oct 21 7:00 AM, Heilbronn, Weather by CustomWeather, © 2014

Note: Actual official high and low records may vary slightly from our data, if they occured in-between our weather recording intervals... More about our weather records

Advertising

Heilbronn weather history for previous 24 hours

 ConditionsComfort  
Time TempWeatherWind HumidityBarometerVisibility
7:00 AM
Oct 21
52 °FOvercast.2 mph96%29.96 "Hg5 mi
6:00 AM52 °FFog.2 mph98%29.96 "Hg4 mi
5:00 AM51 °FFog.1 mph99%29.99 "Hg3 mi
4:00 AM51 °FFog.2 mph98%30.00 "Hg4 mi
3:00 AM52 °FPassing clouds.2 mph97%30.01 "Hg7 mi
2:00 AM52 °FPassing clouds.3 mph94%30.01 "Hg14 mi
1:00 AM53 °FPassing clouds.2 mph92%30.01 "Hg19 mi
12:00 AM55 °FOvercast.3 mph85%30.00 "Hg43 mi
11:00 PM
Oct 20
57 °FLight rain. Overcast.5 mph88%30.03 "Hg11 mi
10:00 PM58 °FLight rain. Overcast.3 mph96%30.02 "Hg3 mi
9:00 PM59 °FLight rain. Overcast.3 mph96%30.02 "Hg3 mi
8:00 PM60 °FLight rain. Overcast.3 mph94%30.02 "Hg3 mi
7:00 PM60 °FLight rain. Overcast.2 mph95%30.01 "Hg3 mi
6:00 PM61 °FLight rain. Overcast.3 mph91%30.03 "Hg7 mi
5:00 PM62 °FOvercast.5 mph89%30.05 "Hg9 mi
4:00 PM62 °FDrizzle. Overcast.3 mph89%30.05 "Hg8 mi
3:00 PM63 °FOvercast.2 mph89%30.06 "Hg9 mi
2:00 PM62 °FOvercast.5 mph92%30.08 "Hg7 mi
1:00 PM62 °FOvercast.3 mph93%30.09 "Hg4 mi
12:00 PM61 °FLight rain. Overcast.5 mph96%30.10 "Hg3 mi
11:00 AM62 °FLight rain. Overcast.3 mph89%30.09 "Hg3 mi
10:00 AM63 °FOvercast.3 mph84%30.10 "Hg18 mi
9:00 AM63 °FOvercast.3 mph83%30.10 "Hg17 mi
8:00 AM63 °FOvercast.3 mph82%30.09 "Hg19 mi
Weather by CustomWeather, © 2014

See weather overviewHow to use our weather pages